Time,TemperatureF,DewpointF,PressureIn,WindDirection,WindDirectionDegrees,WindSpeedMPH,WindSpeedGustMPH,Humidity,HourlyPrecipIn,Conditions,Clouds,dailyrainin,SolarRadiationWatts/m^2,SoftwareType,DateUTC
2013-11-13 00:02:00,41.9,36.2,29.95,North,-999,0.0,0.7,80,0.00,,,0.00,0.00,pywws,2013-11-13 00:02:00,
2013-11-13 00:07:00,41.7,36.0,29.95,SW,225,0.7,1.6,80,0.00,,,0.00,0.00,pywws,2013-11-13 00:07:00,
2013-11-13 00:13:00,41.7,36.0,29.95,North,-999,0.0,0.7,80,0.00,,,0.00,0.00,pywws,2013-11-13 00:13:00,
2013-11-13 00:18:00,41.7,36.3,29.94,NW,315,0.7,1.6,81,0.00,,,0.00,0.00,pywws,2013-11-13 00:18:00,
2013-11-13 00:24:00,41.7,36.3,29.94,SW,225,0.7,2.2,81,0.00,,,0.00,0.00,pywws,2013-11-13 00:24:00,
2013-11-13 00:30:00,41.9,36.8,29.94,NW,315,0.7,2.2,82,0.00,,,0.00,0.00,pywws,2013-11-13 00:30:00,
2013-11-13 00:35:00,42.1,37.0,29.94,NNW,338,1.6,3.1,82,0.00,,,0.00,0.00,pywws,2013-11-13 00:35:00,
2013-11-13 00:41:00,42.3,37.2,29.94,SW,225,2.2,3.8,82,0.00,,,0.00,0.00,pywws,2013-11-13 00:41:00,
2013-11-13 00:46:00,42.4,37.3,29.94,NW,315,1.6,3.1,82,0.00,,,0.00,0.00,pywws,2013-11-13 00:46:00,
2013-11-13 00:52:00,42.6,37.2,29.94,NW,315,0.7,2.2,81,0.00,,,0.00,0.00,pywws,2013-11-13 00:52:00,
2013-11-13 00:58:00,42.8,37.1,29.94,South,180,0.7,1.6,80,0.00,,,0.00,0.00,pywws,2013-11-13 00:58:00,
2013-11-13 01:03:00,42.8,37.1,29.94,South,180,0.7,2.2,80,0.00,,,0.00,0.00,pywws,2013-11-13 01:03:00,
2013-11-13 01:09:00,42.4,36.7,29.94,SW,225,1.6,2.2,80,0.00,,,0.00,0.00,pywws,2013-11-13 01:09:00,
2013-11-13 01:14:00,42.1,36.0,29.93,SW,225,1.6,2.2,79,0.00,,,0.00,0.00,pywws,2013-11-13 01:14:00,
2013-11-13 01:20:00,41.9,36.2,29.93,South,180,0.7,2.2,80,0.00,,,0.00,0.00,pywws,2013-11-13 01:20:00,
2013-11-13 01:26:00,41.9,36.2,29.93,SW,225,1.6,3.1,80,0.00,,,0.00,0.00,pywws,2013-11-13 01:26:00,
2013-11-13 01:31:00,41.9,36.5,29.93,SW,225,0.7,1.6,81,0.00,,,0.00,0.00,pywws,2013-11-13 01:31:00,
2013-11-13 01:37:00,41.7,36.3,29.93,SW,225,0.7,1.6,81,0.00,,,0.00,0.00,pywws,2013-11-13 01:37:00,
2013-11-13 01:42:00,41.7,36.3,29.93,SW,225,0.7,1.6,81,0.00,,,0.00,0.00,pywws,2013-11-13 01:42:00,
2013-11-13 01:48:00,41.5,36.2,29.93,West,270,2.2,3.8,81,0.00,,,0.00,0.00,pywws,2013-11-13 01:48:00,
2013-11-13 01:54:00,41.5,36.2,29.92,North,0,0.7,1.6,81,0.00,,,0.00,0.00,pywws,2013-11-13 01:54:00,
2013-11-13 01:59:00,41.2,35.8,29.92,West,270,1.6,3.1,81,0.00,,,0.00,0.00,pywws,2013-11-13 01:59:00,
2013-11-13 02:05:00,41.0,35.6,29.92,West,270,0.7,2.2,81,0.00,,,0.00,0.00,pywws,2013-11-13 02:05:00,
2013-11-13 02:10:00,41.0,35.6,29.92,SSW,202,0.7,1.6,81,0.00,,,0.00,0.00,pywws,2013-11-13 02:10:00,
2013-11-13 02:16:00,40.8,35.8,29.92,West,270,0.7,1.6,82,0.00,,,0.00,0.00,pywws,2013-11-13 02:16:00,
2013-11-13 02:22:00,41.0,35.9,29.91,SW,225,1.6,3.1,82,0.00,,,0.00,0.00,pywws,2013-11-13 02:22:00,
2013-11-13 02:27:00,41.2,36.4,29.92,West,270,1.6,2.2,83,0.00,,,0.00,0.00,pywws,2013-11-13 02:27:00,
2013-11-13 02:33:00,41.5,36.8,29.91,WNW,292,2.2,3.1,83,0.00,,,0.00,0.00,pywws,2013-11-13 02:33:00,
2013-11-13 02:38:00,41.9,37.1,29.91,SW,225,2.2,3.1,83,0.00,,,0.00,0.00,pywws,2013-11-13 02:38:00,
2013-11-13 02:44:00,42.3,37.5,29.91,SW,225,2.2,3.1,83,0.00,,,0.00,0.00,pywws,2013-11-13 02:44:00,
2013-11-13 02:50:00,42.6,37.5,29.91,West,270,0.7,1.6,82,0.00,,,0.00,0.00,pywws,2013-11-13 02:50:00,
2013-11-13 02:55:00,42.6,37.5,29.91,NNW,338,0.7,1.6,82,0.00,,,0.00,0.00,pywws,2013-11-13 02:55:00,
2013-11-13 03:00:00,42.8,37.1,29.91,SE,135,2.2,3.1,80,0.00,,,0.00,0.00,pywws,2013-11-13 03:00:00,
2013-11-13 03:06:00,42.8,37.1,29.91,South,180,0.7,1.6,80,0.00,,,0.00,0.00,pywws,2013-11-13 03:06:00,
2013-11-13 03:11:00,43.2,37.7,29.91,North,-999,0.0,0.7,81,0.00,,,0.00,0.00,pywws,2013-11-13 03:11:00,
2013-11-13 03:17:00,43.3,37.9,29.91,SW,225,0.7,1.6,81,0.00,,,0.00,0.00,pywws,2013-11-13 03:17:00,
2013-11-13 03:22:00,43.3,37.6,29.91,South,180,0.7,1.6,80,0.00,,,0.00,0.00,pywws,2013-11-13 03:22:00,
2013-11-13 03:28:00,43.3,37.6,29.91,North,-999,0.0,1.6,80,0.00,,,0.00,0.00,pywws,2013-11-13 03:28:00,
2013-11-13 03:34:00,43.3,37.6,29.91,NW,315,0.7,1.6,80,0.00,,,0.00,0.00,pywws,2013-11-13 03:34:00,
2013-11-13 03:39:00,43.5,37.8,29.91,South,180,0.7,1.6,80,0.00,,,0.00,0.00,pywws,2013-11-13 03:39:00,
2013-11-13 03:45:00,43.5,37.8,29.91,WSW,248,1.6,3.1,80,0.00,,,0.00,0.00,pywws,2013-11-13 03:45:00,
2013-11-13 03:50:00,43.5,37.8,29.91,ENE,68,0.7,2.2,80,0.00,,,0.00,0.00,pywws,2013-11-13 03:50:00,
2013-11-13 03:56:00,43.5,37.8,29.91,SW,225,0.7,1.6,80,0.00,,,0.00,0.00,pywws,2013-11-13 03:56:00,
2013-11-13 04:02:00,43.5,37.8,29.91,SW,225,1.6,2.2,80,0.00,,,0.00,0.00,pywws,2013-11-13 04:02:00,
2013-11-13 04:07:00,43.5,37.8,29.91,South,180,0.7,1.6,80,0.00,,,0.00,0.00,pywws,2013-11-13 04:07:00,
2013-11-13 04:13:00,43.5,37.8,29.91,West,270,0.7,2.2,80,0.00,,,0.00,0.00,pywws,2013-11-13 04:13:00,
2013-11-13 04:18:00,43.3,37.6,29.91,NW,315,0.7,1.6,80,0.00,,,0.00,0.00,pywws,2013-11-13 04:18:00,
2013-11-13 04:24:00,43.3,37.3,29.91,NW,315,0.7,2.2,79,0.00,,,0.00,0.00,pywws,2013-11-13 04:24:00,
2013-11-13 04:30:00,43.2,37.1,29.91,SW,225,1.6,2.2,79,0.00,,,0.00,0.00,pywws,2013-11-13 04:30:00,
2013-11-13 04:35:00,43.2,37.1,29.91,West,270,0.7,1.6,79,0.00,,,0.00,0.00,pywws,2013-11-13 04:35:00,
2013-11-13 04:41:00,43.0,36.9,29.90,West,270,0.7,1.6,79,0.00,,,0.00,0.00,pywws,2013-11-13 04:41:00,
2013-11-13 04:46:00,42.8,36.7,29.90,North,-999,0.0,0.7,79,0.00,,,0.00,0.00,pywws,2013-11-13 04:46:00,
2013-11-13 04:52:00,42.4,36.7,29.90,South,180,0.7,2.2,80,0.00,,,0.00,0.00,pywws,2013-11-13 04:52:00,
2013-11-13 04:58:00,42.3,36.5,29.90,SW,225,1.6,2.2,80,0.00,,,0.00,0.00,pywws,2013-11-13 04:58:00,
2013-11-13 05:01:00,42.3,36.9,29.90,North,-999,0.0,1.6,81,0.00,,,0.00,0.00,pywws,2013-11-13 05:01:00,
2013-11-13 05:02:00,42.3,36.9,29.90,North,-999,0.0,1.6,81,0.00,,,0.00,0.00,pywws,2013-11-13 05:02:00,
2013-11-13 05:05:00,42.3,36.9,29.90,North,-999,0.0,0.7,81,0.00,,,0.00,0.00,pywws,2013-11-13 05:05:00,
2013-11-13 05:08:00,42.3,36.9,29.90,NW,315,0.7,1.6,81,0.00,,,0.00,0.00,pywws,2013-11-13 05:08:00,
2013-11-13 05:13:00,42.1,37.0,29.89,SW,225,0.7,1.6,82,0.00,,,0.00,0.00,pywws,2013-11-13 05:13:00,
2013-11-13 05:18:00,41.9,36.8,29.89,South,180,0.7,1.6,82,0.00,,,0.00,0.00,pywws,2013-11-13 05:18:00,
2013-11-13 05:24:00,41.9,36.8,29.89,South,180,0.7,0.7,82,0.00,,,0.00,0.00,pywws,2013-11-13 05:24:00,
2013-11-13 05:30:00,41.7,36.6,29.89,North,-999,0.0,1.6,82,0.00,,,0.00,0.00,pywws,2013-11-13 05:30:00,
2013-11-13 05:35:00,41.5,36.5,29.88,North,-999,0.0,0.7,82,0.00,,,0.00,0.00,pywws,2013-11-13 05:35:00,
2013-11-13 05:41:00,41.2,36.1,29.88,South,180,0.7,1.6,82,0.00,,,0.00,0.00,pywws,2013-11-13 05:41:00,
2013-11-13 05:46:00,41.0,35.9,29.88,North,-999,0.0,0.7,82,0.00,,,0.00,0.00,pywws,2013-11-13 05:46:00,
2013-11-13 05:52:00,40.5,35.7,29.88,North,-999,0.0,0.7,83,0.00,,,0.00,0.00,pywws,2013-11-13 05:52:00,
2013-11-13 05:58:00,40.1,35.4,29.88,SW,225,0.7,1.6,83,0.00,,,0.00,0.00,pywws,2013-11-13 05:58:00,
2013-11-13 06:03:00,40.3,35.8,29.88,South,180,0.7,1.6,84,0.00,,,0.00,0.00,pywws,2013-11-13 06:03:00,
2013-11-13 06:09:00,41.0,36.5,29.87,SW,225,1.6,2.2,84,0.00,,,0.00,0.00,pywws,2013-11-13 06:09:00,
2013-11-13 06:14:00,41.9,37.4,29.87,NNE,22,1.6,3.8,84,0.00,,,0.00,0.00,pywws,2013-11-13 06:14:00,
2013-11-13 06:20:00,42.6,38.1,29.87,NW,315,1.6,3.1,84,0.00,,,0.00,0.00,pywws,2013-11-13 06:20:00,
2013-11-13 06:26:00,43.5,37.8,29.87,SW,225,3.1,4.5,80,0.00,,,0.00,0.00,pywws,2013-11-13 06:26:00,
2013-11-13 06:31:00,44.4,37.3,29.87,SW,225,2.2,3.8,76,0.00,,,0.00,0.00,pywws,2013-11-13 06:31:00,
2013-11-13 06:37:00,45.1,36.7,29.87,SW,225,3.1,4.5,72,0.00,,,0.00,0.00,pywws,2013-11-13 06:37:00,
2013-11-13 06:42:00,45.7,36.5,29.87,NW,315,1.6,2.2,70,0.00,,,0.00,0.00,pywws,2013-11-13 06:42:00,
2013-11-13 06:48:00,45.7,36.1,29.87,North,-999,0.0,1.6,69,0.00,,,0.00,0.00,pywws,2013-11-13 06:48:00,
2013-11-13 06:54:00,45.0,35.0,29.87,North,-999,0.0,0.7,68,0.00,,,0.00,0.00,pywws,2013-11-13 06:54:00,
2013-11-13 06:59:00,43.9,34.7,29.86,North,-999,0.0,1.6,70,0.00,,,0.00,0.00,pywws,2013-11-13 06:59:00,
2013-11-13 07:05:00,42.8,34.4,29.86,North,-999,0.0,0.0,72,0.00,,,0.00,0.00,pywws,2013-11-13 07:05:00,
2013-11-13 07:10:00,41.9,33.9,29.86,North,-999,0.0,0.7,73,0.00,,,0.00,0.00,pywws,2013-11-13 07:10:00,
2013-11-13 07:16:00,41.5,33.9,29.86,North,-999,0.0,0.7,74,0.00,,,0.00,0.00,pywws,2013-11-13 07:16:00,
2013-11-13 07:22:00,41.2,33.9,29.85,East,90,0.7,1.6,75,0.00,,,0.00,0.00,pywws,2013-11-13 07:22:00,
2013-11-13 07:27:00,41.0,34.0,29.85,North,-999,0.0,1.6,76,0.00,,,0.00,0.00,pywws,2013-11-13 07:27:00,
2013-11-13 07:33:00,40.8,34.5,29.85,NE,45,0.7,2.2,78,0.00,,,0.00,0.35,pywws,2013-11-13 07:33:00,
2013-11-13 07:38:00,41.0,35.0,29.85,NW,315,1.6,3.1,79,0.00,,,0.00,0.99,pywws,2013-11-13 07:38:00,
2013-11-13 07:44:00,41.5,35.8,29.85,SW,225,3.1,3.8,80,0.00,,,0.00,2.03,pywws,2013-11-13 07:44:00,
2013-11-13 07:49:00,43.2,36.8,29.86,SW,225,1.6,3.1,78,0.00,,,0.00,3.26,pywws,2013-11-13 07:49:00,
2013-11-13 07:55:00,43.9,36.5,29.85,South,180,3.1,6.0,75,0.00,,,0.00,4.94,pywws,2013-11-13 07:55:00,
2013-11-13 08:00:00,44.2,36.1,29.85,NW,315,0.7,2.2,73,0.00,,,0.00,7.06,pywws,2013-11-13 08:00:00,
2013-11-13 08:05:00,44.4,36.0,29.85,NE,45,3.1,6.9,72,0.00,,,0.00,9.81,pywws,2013-11-13 08:05:00,
2013-11-13 08:11:00,45.0,35.8,29.86,SW,225,1.6,3.1,70,0.00,,,0.00,13.67,pywws,2013-11-13 08:11:00,
2013-11-13 08:17:00,45.5,35.9,29.86,South,180,1.6,2.2,69,0.00,,,0.00,17.60,pywws,2013-11-13 08:17:00,
2013-11-13 08:22:00,45.3,35.4,29.86,SW,225,3.1,3.8,68,0.00,,,0.00,23.26,pywws,2013-11-13 08:22:00,
2013-11-13 08:28:00,45.5,35.6,29.85,South,180,2.2,3.8,68,0.00,,,0.00,29.98,pywws,2013-11-13 08:28:00,
2013-11-13 08:34:00,45.9,35.9,29.85,SW,225,4.5,6.9,68,0.00,,,0.00,34.95,pywws,2013-11-13 08:34:00,
2013-11-13 08:39:00,46.2,35.9,29.85,NW,315,2.2,3.8,67,0.00,,,0.00,37.14,pywws,2013-11-13 08:39:00,
2013-11-13 08:45:00,46.6,36.2,29.85,North,-999,0.0,1.6,67,0.00,,,0.00,31.83,pywws,2013-11-13 08:45:00,
2013-11-13 08:50:00,46.6,36.2,29.85,SW,225,1.6,2.2,67,0.00,,,0.00,28.88,pywws,2013-11-13 08:50:00,
2013-11-13 08:56:00,46.6,36.2,29.85,East,90,4.5,6.9,67,0.00,,,0.00,29.71,pywws,2013-11-13 08:56:00,
2013-11-13 09:01:00,46.4,36.0,29.86,NW,315,0.7,2.2,67,0.00,,,0.00,31.37,pywws,2013-11-13 09:01:00,
2013-11-13 09:06:00,46.4,36.0,29.86,North,-999,0.0,1.6,67,0.00,,,0.00,35.30,pywws,2013-11-13 09:06:00,
2013-11-13 09:12:00,46.2,36.2,29.86,North,-999,0.0,0.7,68,0.00,,,0.00,40.07,pywws,2013-11-13 09:12:00,
2013-11-13 09:17:00,46.2,36.2,29.86,East,90,0.7,1.6,68,0.00,,,0.00,40.71,pywws,2013-11-13 09:17:00,
2013-11-13 09:23:00,46.0,36.4,29.86,North,-999,0.0,1.6,69,0.00,,,0.00,41.58,pywws,2013-11-13 09:23:00,
2013-11-13 09:29:00,46.0,36.8,29.86,SE,135,0.7,1.6,70,0.00,,,0.00,42.62,pywws,2013-11-13 09:29:00,
2013-11-13 09:34:00,46.0,36.8,29.86,SE,135,1.6,2.2,70,0.00,,,0.00,46.99,pywws,2013-11-13 09:34:00,
2013-11-13 09:40:00,46.0,36.8,29.86,NE,45,0.7,2.2,70,0.00,,,0.00,52.22,pywws,2013-11-13 09:40:00,
2013-11-13 09:45:00,46.2,37.0,29.86,East,90,1.6,3.1,70,0.00,,,0.00,64.93,pywws,2013-11-13 09:45:00,
2013-11-13 09:51:00,46.6,37.0,29.86,North,-999,0.0,0.7,69,0.00,,,0.00,63.08,pywws,2013-11-13 09:51:00,
2013-11-13 09:57:00,46.9,37.7,29.86,East,90,0.7,2.2,70,0.00,,,0.00,59.69,pywws,2013-11-13 09:57:00,
2013-11-13 10:02:00,47.7,38.4,29.86,West,270,2.2,3.1,70,0.00,,,0.00,55.95,pywws,2013-11-13 10:02:00,
2013-11-13 10:08:00,48.9,38.5,29.86,North,0,2.2,5.4,67,0.00,,,0.00,53.29,pywws,2013-11-13 10:08:00,
2013-11-13 10:14:00,49.3,38.0,29.87,South,180,3.1,6.0,65,0.00,,,0.00,52.56,pywws,2013-11-13 10:14:00,
2013-11-13 10:19:00,49.6,38.0,29.87,West,270,5.4,8.3,64,0.00,,,0.00,54.51,pywws,2013-11-13 10:19:00,
2013-11-13 10:25:00,49.8,38.1,29.87,SSW,202,5.4,9.2,64,0.00,,,0.00,59.40,pywws,2013-11-13 10:25:00,
2013-11-13 10:30:00,50.0,37.9,29.86,SE,135,3.8,6.0,63,0.00,,,0.00,66.82,pywws,2013-11-13 10:30:00,
2013-11-13 10:36:00,49.8,38.1,29.86,SSE,158,2.2,5.4,64,0.00,,,0.00,70.88,pywws,2013-11-13 10:36:00,
2013-11-13 10:41:00,50.0,37.9,29.87,SSW,202,3.8,7.6,63,0.00,,,0.00,73.41,pywws,2013-11-13 10:41:00,
2013-11-13 10:47:00,50.0,37.9,29.87,SW,225,6.9,9.8,63,0.00,,,0.00,73.77,pywws,2013-11-13 10:47:00,
2013-11-13 10:53:00,49.8,38.1,29.87,West,270,3.8,7.6,64,0.00,,,0.00,74.10,pywws,2013-11-13 10:53:00,
2013-11-13 10:58:00,50.0,37.9,29.86,West,270,7.6,13.0,63,0.00,,,0.00,74.98,pywws,2013-11-13 10:58:00,
2013-11-13 11:04:00,50.2,37.7,29.86,SW,225,3.1,5.4,62,0.00,,,0.00,84.69,pywws,2013-11-13 11:04:00,
2013-11-13 11:09:00,50.5,37.6,29.86,SE,135,7.6,19.0,61,0.00,,,0.00,68.14,pywws,2013-11-13 11:09:00,
2013-11-13 11:15:00,50.5,36.8,29.85,South,180,7.6,14.5,59,0.00,,,0.00,77.71,pywws,2013-11-13 11:15:00,
2013-11-13 11:21:00,50.5,36.3,29.85,SW,225,11.4,17.5,58,0.00,,,0.00,97.64,pywws,2013-11-13 11:21:00,
2013-11-13 11:26:00,51.3,36.6,29.85,South,180,10.7,17.5,57,0.00,,,0.00,274.65,pywws,2013-11-13 11:26:00,
2013-11-13 11:32:00,52.2,36.5,29.85,NW,315,8.3,12.1,55,0.00,,,0.00,143.15,pywws,2013-11-13 11:32:00,
2013-11-13 11:37:00,51.8,36.2,29.85,North,0,6.9,11.4,55,0.00,,,0.00,113.69,pywws,2013-11-13 11:37:00,
2013-11-13 11:43:00,51.6,36.9,29.85,SW,225,6.0,6.9,57,0.00,,,0.00,93.47,pywws,2013-11-13 11:43:00,
2013-11-13 11:49:00,51.4,37.2,29.85,SW,225,6.0,8.3,58,0.00,,,0.00,81.37,pywws,2013-11-13 11:49:00,
2013-11-13 11:54:00,51.3,37.4,29.86,South,180,5.4,8.3,59,0.00,,,0.00,72.76,pywws,2013-11-13 11:54:00,
2013-11-13 12:00:00,51.4,37.2,29.86,South,180,2.2,3.8,58,0.00,,,0.00,61.93,pywws,2013-11-13 12:00:00,
2013-11-13 12:05:00,51.4,37.2,29.86,South,180,4.5,9.2,58,0.00,,,0.00,50.70,pywws,2013-11-13 12:05:00,
2013-11-13 12:11:00,51.6,37.3,29.86,South,180,2.2,4.5,58,0.00,,,0.00,44.65,pywws,2013-11-13 12:11:00,
2013-11-13 12:17:00,51.4,37.2,29.86,NW,315,8.3,14.5,58,0.00,,,0.00,60.76,pywws,2013-11-13 12:17:00,
2013-11-13 12:22:00,51.6,37.3,29.86,SW,225,3.8,7.6,58,0.00,,,0.00,235.49,pywws,2013-11-13 12:22:00,
2013-11-13 12:28:00,53.4,37.7,29.86,West,270,4.5,8.3,55,0.00,,,0.00,160.63,pywws,2013-11-13 12:28:00,
2013-11-13 12:34:00,54.1,37.4,29.86,NE,45,3.8,6.0,53,0.00,,,0.00,197.17,pywws,2013-11-13 12:34:00,
2013-11-13 12:39:00,54.7,37.9,29.86,North,0,3.8,6.0,53,0.00,,,0.00,160.31,pywws,2013-11-13 12:39:00,
2013-11-13 12:44:00,53.6,36.9,29.86,North,0,6.9,13.0,53,0.00,,,0.00,102.00,pywws,2013-11-13 12:44:00,
2013-11-13 12:49:00,52.9,37.2,29.86,South,180,4.5,8.3,55,0.00,,,0.00,81.78,pywws,2013-11-13 12:49:00,
2013-11-13 12:55:00,52.7,37.4,29.87,SW,225,6.0,9.2,56,0.00,,,0.00,60.10,pywws,2013-11-13 12:55:00,
2013-11-13 13:01:00,52.3,37.6,29.87,South,180,6.0,10.7,57,0.00,,,0.00,47.32,pywws,2013-11-13 13:01:00,
2013-11-13 13:06:00,52.2,37.8,29.87,SW,225,3.8,7.6,58,0.00,,,0.00,43.52,pywws,2013-11-13 13:06:00,
2013-11-13 13:12:00,52.2,38.3,29.87,South,180,3.8,6.9,59,0.00,,,0.00,37.84,pywws,2013-11-13 13:12:00,
2013-11-13 13:17:00,52.0,38.1,29.87,South,180,7.6,12.1,59,0.00,,,0.00,30.94,pywws,2013-11-13 13:17:00,
2013-11-13 13:23:00,51.6,38.6,29.87,South,180,5.4,9.2,61,0.00,,,0.00,31.47,pywws,2013-11-13 13:23:00,
2013-11-13 13:29:00,51.6,39.0,29.86,South,180,3.8,5.4,62,0.00,,,0.00,27.26,pywws,2013-11-13 13:29:00,
2013-11-13 13:34:00,51.6,39.4,29.86,SW,225,5.4,9.2,63,0.00,,,0.00,30.88,pywws,2013-11-13 13:34:00,
2013-11-13 13:40:00,51.6,39.4,29.86,South,180,4.5,8.3,63,0.00,,,0.00,37.14,pywws,2013-11-13 13:40:00,
2013-11-13 13:45:00,51.6,39.4,29.85,SW,225,6.0,9.2,63,0.00,,,0.00,35.05,pywws,2013-11-13 13:45:00,
2013-11-13 13:51:00,51.6,39.4,29.85,SE,135,4.5,8.3,63,0.00,,,0.00,47.32,pywws,2013-11-13 13:51:00,
2013-11-13 13:57:00,53.2,40.6,29.85,SE,135,3.8,5.4,62,0.00,,,0.00,60.10,pywws,2013-11-13 13:57:00,
2013-11-13 14:02:00,54.7,40.6,29.84,WSW,248,1.6,3.1,59,0.00,,,0.00,51.51,pywws,2013-11-13 14:02:00,
2013-11-13 14:08:00,55.2,40.7,29.84,NW,315,0.7,2.2,58,0.00,,,0.00,33.02,pywws,2013-11-13 14:08:00,
2013-11-13 14:14:00,54.3,40.3,29.84,SW,225,3.1,6.0,59,0.00,,,0.00,39.34,pywws,2013-11-13 14:14:00,
2013-11-13 14:19:00,53.1,40.4,29.83,South,180,7.6,11.4,62,0.00,,,0.00,56.32,pywws,2013-11-13 14:19:00,
2013-11-13 14:25:00,53.6,40.9,29.83,West,270,4.5,8.3,62,0.00,,,0.00,118.02,pywws,2013-11-13 14:25:00,
2013-11-13 14:30:00,54.0,40.4,29.82,SW,225,6.0,8.3,60,0.00,,,0.00,60.76,pywws,2013-11-13 14:30:00,
2013-11-13 14:36:00,52.9,40.2,29.82,SSW,202,5.4,11.4,62,0.00,,,0.00,39.23,pywws,2013-11-13 14:36:00,
2013-11-13 14:41:00,52.3,40.1,29.82,NW,315,6.0,9.2,63,0.00,,,0.00,52.93,pywws,2013-11-13 14:41:00,
2013-11-13 14:47:00,52.0,40.2,29.81,SE,135,4.5,6.9,64,0.00,,,0.00,51.51,pywws,2013-11-13 14:47:00,
2013-11-13 14:53:00,52.0,40.2,29.81,South,180,6.9,14.5,64,0.00,,,0.00,28.71,pywws,2013-11-13 14:53:00,
2013-11-13 14:58:00,51.8,40.4,29.80,SSW,202,3.1,5.4,65,0.00,,,0.00,22.42,pywws,2013-11-13 14:58:00,
2013-11-13 15:04:00,51.6,41.0,29.80,SE,135,5.4,9.8,67,0.00,,,0.00,29.71,pywws,2013-11-13 15:04:00,
2013-11-13 15:09:00,51.4,41.6,29.80,SSE,158,3.1,4.5,69,0.00,,,0.00,21.17,pywws,2013-11-13 15:09:00,
2013-11-13 15:15:00,51.3,41.8,29.80,West,270,8.3,13.6,70,0.00,,,0.00,17.48,pywws,2013-11-13 15:15:00,
2013-11-13 15:21:00,51.3,41.8,29.80,NW,315,3.1,6.9,70,0.00,,,0.00,18.18,pywws,2013-11-13 15:21:00,
2013-11-13 15:26:00,51.4,42.0,29.79,West,270,7.6,14.5,70,0.00,,,0.00,19.91,pywws,2013-11-13 15:26:00,
2013-11-13 15:32:00,51.4,42.0,29.79,South,180,9.2,20.6,70,0.00,,,0.00,13.86,pywws,2013-11-13 15:32:00,
2013-11-13 15:37:00,51.3,42.2,29.79,SW,225,7.6,12.1,71,0.00,,,0.00,24.31,pywws,2013-11-13 15:37:00,
2013-11-13 15:43:00,51.3,42.9,29.78,WSW,248,7.6,12.1,73,0.00,,,0.00,29.98,pywws,2013-11-13 15:43:00,
2013-11-13 15:49:00,51.3,42.9,29.78,SW,225,6.0,9.8,73,0.00,,,0.00,39.07,pywws,2013-11-13 15:49:00,
2013-11-13 15:54:00,51.4,43.1,29.78,SE,135,6.9,10.7,73,0.00,,,0.00,33.16,pywws,2013-11-13 15:54:00,
2013-11-13 16:00:00,51.4,43.1,29.77,SE,135,7.6,16.8,73,0.00,,,0.00,19.80,pywws,2013-11-13 16:00:00,
2013-11-13 16:05:00,51.4,43.1,29.77,West,270,7.6,12.1,73,0.00,,,0.00,12.85,pywws,2013-11-13 16:05:00,
2013-11-13 16:11:00,51.3,42.9,29.77,South,180,5.4,9.2,73,0.00,,,0.00,7.38,pywws,2013-11-13 16:11:00,
2013-11-13 16:17:00,51.3,43.3,29.76,South,180,9.2,13.6,74,0.00,,,0.00,6.40,pywws,2013-11-13 16:17:00,
2013-11-13 16:22:00,51.1,43.1,29.76,SE,135,9.8,17.5,74,0.00,,,0.00,3.36,pywws,2013-11-13 16:22:00,
2013-11-13 16:28:00,51.1,43.4,29.77,South,180,7.6,13.6,75,0.00,,,0.00,2.13,pywws,2013-11-13 16:28:00,
2013-11-13 16:33:00,51.3,43.6,29.76,NW,315,8.3,13.0,75,0.00,,,0.00,0.59,pywws,2013-11-13 16:33:00,
2013-11-13 16:39:00,51.1,43.8,29.75,NW,315,6.9,13.6,76,0.00,,,0.00,0.99,pywws,2013-11-13 16:39:00,
2013-11-13 16:45:00,50.9,44.3,29.75,WNW,292,6.9,14.5,78,0.00,,,0.00,0.74,pywws,2013-11-13 16:45:00,
2013-11-13 16:50:00,50.9,44.3,29.75,South,180,9.8,14.5,78,0.00,,,0.00,0.49,pywws,2013-11-13 16:50:00,
2013-11-13 16:56:00,50.9,44.3,29.75,South,180,6.0,9.8,78,0.00,,,0.00,0.00,pywws,2013-11-13 16:56:00,
2013-11-13 17:02:00,51.1,44.5,29.75,SE,135,3.8,9.2,78,0.00,,,0.00,0.00,pywws,2013-11-13 17:02:00,
2013-11-13 17:07:00,51.4,44.5,29.75,West,270,4.5,8.3,77,0.00,,,0.00,0.00,pywws,2013-11-13 17:07:00,
2013-11-13 17:13:00,52.0,44.3,29.75,South,180,3.8,7.6,75,0.00,,,0.00,0.00,pywws,2013-11-13 17:13:00,
2013-11-13 17:18:00,51.8,44.1,29.75,SW,225,9.8,13.0,75,0.00,,,0.00,0.00,pywws,2013-11-13 17:18:00,
2013-11-13 17:24:00,52.2,44.1,29.75,SW,225,6.9,10.7,74,0.00,,,0.00,0.00,pywws,2013-11-13 17:24:00,
2013-11-13 17:30:00,52.3,43.9,29.75,NW,315,3.8,6.0,73,0.00,,,0.00,0.00,pywws,2013-11-13 17:30:00,
2013-11-13 17:35:00,52.3,43.9,29.75,NW,315,3.8,6.9,73,0.00,,,0.00,0.00,pywws,2013-11-13 17:35:00,
2013-11-13 17:41:00,52.3,43.9,29.75,SW,225,6.9,9.8,73,0.00,,,0.00,0.00,pywws,2013-11-13 17:41:00,
2013-11-13 17:46:00,52.2,43.8,29.75,South,180,4.5,8.3,73,0.00,,,0.00,0.00,pywws,2013-11-13 17:46:00,
2013-11-13 17:52:00,52.0,44.0,29.74,SW,225,5.4,11.4,74,0.00,,,0.00,0.00,pywws,2013-11-13 17:52:00,
2013-11-13 17:58:00,51.8,44.1,29.74,South,180,3.8,6.9,75,0.00,,,0.00,0.00,pywws,2013-11-13 17:58:00,
2013-11-13 18:03:00,51.6,44.3,29.74,West,270,5.4,7.6,76,0.00,,,0.00,0.00,pywws,2013-11-13 18:03:00,
2013-11-13 18:09:00,51.6,44.0,29.74,NW,315,5.4,7.6,75,0.00,,,0.00,0.00,pywws,2013-11-13 18:09:00,
2013-11-13 18:14:00,51.8,43.8,29.74,SW,225,3.8,5.4,74,0.00,,,0.00,0.00,pywws,2013-11-13 18:14:00,
2013-11-13 18:20:00,51.8,43.4,29.74,West,270,3.8,7.6,73,0.00,,,0.00,0.00,pywws,2013-11-13 18:20:00,
2013-11-13 18:26:00,51.6,43.6,29.73,NW,315,3.8,5.4,74,0.00,,,0.00,0.00,pywws,2013-11-13 18:26:00,
2013-11-13 18:31:00,51.6,43.6,29.74,SW,225,4.5,6.9,74,0.00,,,0.00,0.00,pywws,2013-11-13 18:31:00,
2013-11-13 18:37:00,51.8,43.4,29.73,NW,315,9.2,13.0,73,0.01,,,0.01,0.00,pywws,2013-11-13 18:37:00,
2013-11-13 18:42:00,51.6,43.6,29.74,NW,315,3.8,8.3,74,0.01,,,0.01,0.00,pywws,2013-11-13 18:42:00,
2013-11-13 18:48:00,51.6,43.6,29.73,SW,225,6.0,9.8,74,0.01,,,0.01,0.00,pywws,2013-11-13 18:48:00,
2013-11-13 18:54:00,51.4,43.4,29.73,West,270,7.6,16.8,74,0.01,,,0.01,0.00,pywws,2013-11-13 18:54:00,
2013-11-13 18:59:00,51.3,43.3,29.73,South,180,5.4,8.3,74,0.01,,,0.01,0.00,pywws,2013-11-13 18:59:00,
2013-11-13 19:05:00,51.3,43.3,29.73,South,180,5.4,8.3,74,0.01,,,0.01,0.00,pywws,2013-11-13 19:05:00,
2013-11-13 19:10:00,51.3,43.3,29.73,NE,45,3.8,7.6,74,0.01,,,0.01,0.00,pywws,2013-11-13 19:10:00,
2013-11-13 19:16:00,51.1,43.1,29.73,West,270,3.8,6.0,74,0.01,,,0.01,0.00,pywws,2013-11-13 19:16:00,
2013-11-13 19:22:00,50.9,42.9,29.73,SW,225,4.5,8.3,74,0.01,,,0.01,0.00,pywws,2013-11-13 19:22:00,
2013-11-13 19:27:00,51.1,42.7,29.72,SE,135,4.5,8.3,73,0.01,,,0.01,0.00,pywws,2013-11-13 19:27:00,
2013-11-13 19:33:00,50.9,42.6,29.72,South,180,5.4,9.2,73,0.01,,,0.01,0.00,pywws,2013-11-13 19:33:00,
2013-11-13 19:38:00,50.9,42.6,29.72,NNW,338,6.9,12.1,73,0.00,,,0.01,0.00,pywws,2013-11-13 19:38:00,
2013-11-13 19:44:00,50.7,42.4,29.72,SW,225,5.4,8.3,73,0.00,,,0.01,0.00,pywws,2013-11-13 19:44:00,
2013-11-13 19:50:00,50.7,42.4,29.72,NW,315,2.2,4.5,73,0.00,,,0.01,0.00,pywws,2013-11-13 19:50:00,
2013-11-13 19:55:00,50.7,42.4,29.72,SW,225,1.6,3.8,73,0.00,,,0.01,0.00,pywws,2013-11-13 19:55:00,
2013-11-13 20:01:00,50.5,42.2,29.72,NW,315,3.8,4.5,73,0.00,,,0.01,0.00,pywws,2013-11-13 20:01:00,
2013-11-13 20:06:00,50.4,42.0,29.72,NW,315,6.0,13.0,73,0.00,,,0.01,0.00,pywws,2013-11-13 20:06:00,
2013-11-13 20:12:00,50.5,42.2,29.72,North,-999,3.8,7.6,73,0.00,,,0.01,0.00,pywws,2013-11-13 20:12:00,
2013-11-13 20:18:00,50.5,42.2,29.72,SW,225,2.2,3.8,73,0.00,,,0.01,0.00,pywws,2013-11-13 20:18:00,
2013-11-13 20:23:00,50.5,42.2,29.71,NW,315,3.8,5.4,73,0.00,,,0.01,0.00,pywws,2013-11-13 20:23:00,
2013-11-13 20:29:00,50.5,42.2,29.71,SW,225,3.8,8.3,73,0.00,,,0.01,0.00,pywws,2013-11-13 20:29:00,
2013-11-13 20:34:00,50.4,42.4,29.70,NW,315,6.9,14.5,74,0.00,,,0.01,0.00,pywws,2013-11-13 20:34:00,
2013-11-13 20:40:00,50.5,42.6,29.70,WNW,292,13.0,22.8,74,0.00,,,0.01,0.00,pywws,2013-11-13 20:40:00,
2013-11-13 20:46:00,50.9,42.6,29.71,West,270,5.4,11.4,73,0.00,,,0.01,0.00,pywws,2013-11-13 20:46:00,
2013-11-13 20:51:00,50.7,42.7,29.70,West,270,9.2,14.5,74,0.00,,,0.01,0.00,pywws,2013-11-13 20:51:00,
2013-11-13 20:57:00,50.4,43.1,29.70,NW,315,6.9,13.6,76,0.00,,,0.01,0.00,pywws,2013-11-13 20:57:00,
2013-11-13 21:02:00,50.4,43.1,29.70,South,180,6.9,16.8,76,0.00,,,0.01,0.00,pywws,2013-11-13 21:02:00,
2013-11-13 21:08:00,50.7,43.1,29.70,SW,225,8.3,14.5,75,0.00,,,0.01,0.00,pywws,2013-11-13 21:08:00,
2013-11-13 21:14:00,50.9,42.9,29.70,NW,315,6.0,13.0,74,0.00,,,0.01,0.00,pywws,2013-11-13 21:14:00,
2013-11-13 21:19:00,50.5,42.9,29.71,WNW,292,8.3,12.1,75,0.00,,,0.01,0.00,pywws,2013-11-13 21:19:00,
2013-11-13 21:25:00,50.5,42.9,29.71,SW,225,4.5,6.9,75,0.00,,,0.01,0.00,pywws,2013-11-13 21:25:00,
2013-11-13 21:30:00,50.2,42.6,29.71,SW,225,4.5,10.7,75,0.00,,,0.01,0.00,pywws,2013-11-13 21:30:00,
2013-11-13 21:36:00,49.8,42.9,29.71,SSE,158,5.4,11.4,77,0.00,,,0.01,0.00,pywws,2013-11-13 21:36:00,
2013-11-13 21:42:00,49.8,42.9,29.71,SW,225,9.8,16.8,77,0.00,,,0.01,0.00,pywws,2013-11-13 21:42:00,
2013-11-13 21:47:00,50.0,42.4,29.71,West,270,9.8,14.5,75,0.00,,,0.01,0.00,pywws,2013-11-13 21:47:00,
2013-11-13 21:53:00,50.0,42.0,29.71,SW,225,7.6,11.4,74,0.00,,,0.01,0.00,pywws,2013-11-13 21:53:00,
2013-11-13 21:58:00,50.2,42.2,29.71,NW,315,6.0,11.4,74,0.00,,,0.01,0.00,pywws,2013-11-13 21:58:00,
2013-11-13 22:04:00,50.2,41.9,29.71,NW,315,13.6,21.2,73,0.00,,,0.01,0.00,pywws,2013-11-13 22:04:00,
2013-11-13 22:10:00,50.2,41.5,29.71,NW,315,9.8,20.6,72,0.00,,,0.01,0.00,pywws,2013-11-13 22:10:00,
2013-11-13 22:15:00,50.4,41.0,29.71,SW,225,6.0,15.9,70,0.00,,,0.01,0.00,pywws,2013-11-13 22:15:00,
2013-11-13 22:21:00,50.4,41.0,29.71,SW,225,3.8,6.0,70,0.00,,,0.01,0.00,pywws,2013-11-13 22:21:00,
2013-11-13 22:26:00,50.2,40.8,29.71,North,0,7.6,13.0,70,0.00,,,0.01,0.00,pywws,2013-11-13 22:26:00,
2013-11-13 22:32:00,50.0,41.0,29.71,NW,315,6.9,12.1,71,0.00,,,0.01,0.00,pywws,2013-11-13 22:32:00,
2013-11-13 22:38:00,50.0,41.0,29.71,West,270,10.7,19.7,71,0.00,,,0.01,0.00,pywws,2013-11-13 22:38:00,
2013-11-13 22:43:00,49.8,40.8,29.71,North,0,6.0,11.4,71,0.00,,,0.01,0.00,pywws,2013-11-13 22:43:00,
2013-11-13 22:49:00,49.6,40.6,29.71,NE,45,6.0,11.4,71,0.00,,,0.01,0.00,pywws,2013-11-13 22:49:00,
2013-11-13 22:54:00,49.8,40.4,29.71,SE,135,3.1,5.4,70,0.00,,,0.01,0.00,pywws,2013-11-13 22:54:00,
2013-11-13 23:00:00,49.8,40.4,29.71,WNW,292,6.0,11.4,70,0.00,,,0.01,0.00,pywws,2013-11-13 23:00:00,
2013-11-13 23:06:00,49.8,40.4,29.71,West,270,3.8,7.6,70,0.00,,,0.01,0.00,pywws,2013-11-13 23:06:00,
2013-11-13 23:11:00,49.6,40.3,29.71,NW,315,5.4,9.8,70,0.00,,,0.01,0.00,pywws,2013-11-13 23:11:00,
2013-11-13 23:17:00,49.3,40.3,29.71,South,180,5.4,9.8,71,0.00,,,0.01,0.00,pywws,2013-11-13 23:17:00,
2013-11-13 23:22:00,49.3,39.9,29.71,North,0,7.6,11.4,70,0.00,,,0.01,0.00,pywws,2013-11-13 23:22:00,
2013-11-13 23:28:00,49.5,39.7,29.72,NW,315,8.3,13.0,69,0.00,,,0.01,0.00,pywws,2013-11-13 23:28:00,
2013-11-13 23:34:00,49.5,39.7,29.72,NW,315,8.3,21.2,69,0.00,,,0.01,0.00,pywws,2013-11-13 23:34:00,
2013-11-13 23:39:00,49.5,39.7,29.72,NW,315,6.9,11.4,69,0.00,,,0.01,0.00,pywws,2013-11-13 23:39:00,
2013-11-13 23:45:00,49.3,39.5,29.72,NW,315,3.1,4.5,69,0.00,,,0.01,0.00,pywws,2013-11-13 23:45:00,
2013-11-13 23:50:00,49.3,40.3,29.72,NW,315,4.5,8.3,71,0.00,,,0.01,0.00,pywws,2013-11-13 23:50:00,
2013-11-13 23:56:00,49.3,40.3,29.72,NW,315,6.9,15.2,71,0.00,,,0.01,0.00,pywws,2013-11-13 23:56:00,